Retour au catalogue

COSMOS 2251 DEB

ActifLEO
NORAD 34990·DEBRIS·🇷🇺 Russia

Lancé Jun 16, 1993 depuis Plesetsk Cosmodrome

Loading…

Prochains Passages (prochaines 24 heures)

TLE

FraisSource: Space-Track

Époque: Sep 14, 2026, 22:03 UTC

1 34990U 93036AFN 26257.91881200  .00000671  00000-0  20823-3 0  9999
2 34990  74.0426  99.0671 0015206  98.7972 261.4907 14.42960390913299

Suivez COSMOS 2251 DEB en temps réel avec AllMySat

Download on the App Store